Location: Buffign�court
(47.8126°N, 6.0176°E)
Time: 19:02:39
(UTC+00:00)

Cosmos 1346 Rocket - Pass Details

Date: 16 June 2021
Orbit: 526 x 551 km, 81.2° (Epoch: 31 July)

Event Time Altitude Azimuth Distance (km) Brightness Sun altitude
Exits shadow 22:18:24 35° 165° (SSE) 884 3.3 -16.7°
Maximum altitude 22:19:53 63° 98° (E) 614 2.9 -16.7°
Drops below altitude 10° 22:23:52 10° 17° (NNE) 1,831 6.3 -16.9°
Sets 22:26:04 0° 15° (NNE) 2,733 7.4 -17.1°
